Home   Weather   Lawrenceville   Past weeks
Flag for USA

Past Weather in Lawrenceville, Georgia, USA — Yesterday and Last 2 Weeks

Now
69 °F

Sunny.


Feels Like: 69 °F
Forecast: 85 / 65 °F
Wind: 5 mph from Southwest

Location: Gwinnett County-Briscoe Field Airport

Current Time: Jun 16, 2019 at 8:52:13 am

Latest Report: Jun 16, 2019 at 7:56 am


Visibility: 10 mi

Pressure: 30.10 "Hg

Humidity: 87%

Dew Point: 65 °F

Location of LawrencevilleLocation

Past Weather in Lawrenceville — Graph

°F

Lawrenceville Temperature Yesterday

Maximum temperature yesterday: 84 °F (at 2:56 pm)
Minimum temperature yesterday: 55 °F (at 2:56 am)
Average temperature yesterday: 71 °F

High & Low Weather Summary for the Past Weeks

 TemperatureHumidityPressure
High88 °F (Jun 1, 4:56 pm)100% (Jun 7, 3:04 am)30.24 "Hg (Jun 7, 3:04 am)
Low52 °F (Jun 14, 5:56 am)26% (Jun 14, 4:56 pm)29.72 "Hg (Jun 7, 3:56 pm)
Average73 °F79%29.98 "Hg
* Reported Jun 1 6:56 am — Jun 16 6:56 am, Lawrenceville. Weather by CustomWeather, © 2019

Note: Actual official high and low records may vary slightly from our data, if they occured in-between our weather recording intervals... More about our weather records

Advertising

Lawrenceville Weather History for the Previous 24 Hours

Scroll right to see more
 ConditionsComfort  
Time TempWeatherWind HumidityBarometerVisibility
6:56 am
Sun, Jun 16
62 °FSunny.No wind96%30.09 "Hg10 mi
5:56 am63 °FPassing clouds.No wind97%30.08 "Hg10 mi
4:56 am63 °FClear.No wind97%30.07 "Hg10 mi
3:56 am63 °FClear.No wind97%30.08 "Hg10 mi
2:56 am66 °FClear.No wind90%30.08 "Hg10 mi
1:56 am70 °FClear.No wind76%30.09 "Hg10 mi
12:56 am73 °FClear.3 mph69%30.09 "Hg10 mi
11:56 pm
Sat, Jun 15
74 °FClear.6 mph67%30.10 "Hg10 mi
10:56 pm72 °FClear.3 mph81%30.11 "Hg10 mi
9:56 pm75 °FClear.N/A71%30.10 "Hg10 mi
8:56 pm78 °FClear.6 mph64%30.09 "Hg10 mi
7:56 pm80 °FScattered clouds.7 mph60%30.09 "Hg10 mi
6:56 pm83 °FPassing clouds.8 mph53%30.09 "Hg10 mi
5:56 pm82 °FBroken clouds.5 mph56%30.11 "Hg10 mi
4:56 pm84 °FPartly sunny.6 mph53%30.12 "Hg10 mi
3:56 pm82 °FBroken clouds.6 mph55%30.14 "Hg10 mi
2:56 pm84 °FScattered clouds.5 mph53%30.15 "Hg10 mi
1:56 pm82 °FBroken clouds.5 mph56%30.17 "Hg10 mi
12:56 pm81 °FPassing clouds.7 mph58%30.19 "Hg10 mi
11:56 am79 °FSunny.6 mph62%30.20 "Hg10 mi
10:56 am76 °FSunny.9 mph67%30.21 "Hg10 mi
9:56 am73 °FSunny.6 mph74%30.23 "Hg10 mi
8:56 am68 °FSunny.3 mph78%30.24 "Hg10 mi
Weather by CustomWeather, © 2019

See weather overview